TimeMST,TemperatureF,Dew PointF,Humidity,Sea Level PressureIn,VisibilityMPH,Wind Direction,Wind SpeedMPH,Gust SpeedMPH,PrecipitationIn,Events,Conditions,WindDirDegrees,DateUTC
12:56 AM,50.0,27.0,41,29.73,-9999.0,SSW,18.4,25.3,N/A,,Unknown,210,2013-11-03 06:56:00
1:56 AM,54.0,25.0,33,29.69,-9999.0,SW,25.3,38.0,N/A,,Unknown,220,2013-11-03 07:56:00
1:56 AM,53.1,25.0,34,29.69,-9999.0,SSW,20.7,28.8,N/A,,Unknown,210,2013-11-03 08:56:00
2:56 AM,55.0,25.0,31,29.67,-9999.0,SW,17.3,28.8,N/A,,Unknown,220,2013-11-03 09:56:00
3:56 AM,51.1,25.0,36,29.67,-9999.0,SSW,18.4,28.8,N/A,,Unknown,210,2013-11-03 10:56:00
4:56 AM,48.9,26.1,41,29.67,-9999.0,SSW,18.4,-,N/A,,Unknown,200,2013-11-03 11:56:00
5:56 AM,48.0,26.1,42,29.66,-9999.0,SSW,15.0,20.7,N/A,,Unknown,210,2013-11-03 12:56:00
6:56 AM,50.0,25.0,38,29.64,-9999.0,SSW,17.3,27.6,N/A,,Unknown,200,2013-11-03 13:56:00
7:56 AM,52.0,25.0,35,29.65,-9999.0,SSW,20.7,27.6,N/A,,Unknown,210,2013-11-03 14:56:00
8:56 AM,59.0,24.1,26,29.61,-9999.0,SSW,18.4,28.8,N/A,,Unknown,210,2013-11-03 15:56:00
9:56 AM,63.0,24.1,23,29.59,-9999.0,SW,17.3,27.6,N/A,,Unknown,220,2013-11-03 16:56:00
10:56 AM,68.0,23.0,18,29.56,-9999.0,South,19.6,26.5,N/A,,Unknown,190,2013-11-03 17:56:00
11:56 AM,73.9,19.0,13,29.50,-9999.0,SW,25.3,33.4,N/A,,Unknown,220,2013-11-03 18:56:00
12:56 PM,75.0,19.9,13,29.46,-9999.0,WSW,19.6,29.9,N/A,,Unknown,250,2013-11-03 19:56:00
1:56 PM,1.0,1.0,100,29.66,-9999.0,WSW,16.1,25.3,N/A,,Unknown,240,2013-11-03 20:56:00
2:56 PM,73.0,21.9,15,29.45,-9999.0,SW,21.9,27.6,N/A,,Unknown,230,2013-11-03 21:56:00
3:56 PM,71.1,21.9,16,29.47,-9999.0,WSW,11.5,21.9,N/A,,Unknown,240,2013-11-03 22:56:00
4:56 PM,64.9,23.0,20,29.49,-9999.0,SW,12.7,-,N/A,,Unknown,230,2013-11-03 23:56:00
5:56 PM,57.9,24.1,27,29.52,-9999.0,SW,10.4,-,N/A,,Unknown,220,2013-11-04 00:56:00
6:56 PM,53.1,25.0,34,29.54,-9999.0,SW,10.4,-,N/A,,Unknown,230,2013-11-04 01:56:00
7:56 PM,50.0,26.1,39,29.56,-9999.0,WSW,12.7,-,N/A,,Unknown,240,2013-11-04 02:56:00
8:56 PM,48.0,26.1,42,29.56,-9999.0,SW,9.2,-,N/A,,Unknown,230,2013-11-04 03:56:00
9:56 PM,48.9,24.1,38,29.56,-9999.0,WSW,12.7,-,N/A,,Unknown,250,2013-11-04 04:56:00
10:56 PM,51.1,25.0,36,29.56,-9999.0,WSW,12.7,-,N/A,,Unknown,240,2013-11-04 05:56:00